Location: Unspecified
(0.0000°N, 0.0000°E)
Time: 14:52:44
(UTC+00:00)

NO-84 - Visible Passes

Search period start: 22 July 2018 00:00
Search period end: 01 August 2018 00:00
Orbit: 336 x 548 km, 55.0° (Epoch: 18 July)

Date Brightness Start Highest point End Pass type
(mag) Time Alt. Az. Time Alt. Az. Time Alt. Az.
22 Jul ? 18:48:26 10° S 18:51:27 20° ESE 18:54:31 10° ENE visible
22 Jul ? 20:25:19 10° WSW 20:28:19 19° WNW 20:28:24 19° NW visible
23 Jul ? 19:44:40 10° WSW 19:48:21 33° WNW 19:52:05 10° N visible
24 Jul ? 19:04:25 10° SW 19:08:23 59° WNW 19:12:26 10° NNE visible
27 Jul ? 05:26:29 10° N 05:28:52 21° ENE 05:31:09 10° ESE visible
27 Jul ? 18:42:43 10° W 18:45:18 16° WNW 18:47:56 10° NNW visible
28 Jul ? 04:47:50 10° NE 04:48:52 11° NE 04:49:54 10° ENE visible
30 Jul ? 05:02:53 11° NW 05:05:41 57° WSW 05:08:31 10° SSE visible
